Content
SEND FEEDBACK

Daily
Averages
Monthly
Summary
United States of America

NEW YORK - CENTRAL PARK, NEW YORK


Home > North America > United States > New York
Elevation: 4 meters     Latitude: 40 47N     Longitude: 073 58W

WEATHER
 
SELECT A DAY
Number of Records: 148,039;   Date Range: 11/1/95 - 7/23/14
 
SHARE

PRINT THIS DATA

[ ← Previous Day ]
WEATHER ALMANAC - 4 MARCH, 2014
[ Next Day → ]
[ °F ]   °C
Weather ElementAverageHighLow
Temperature-5.4 °C-1.7 °C (8:51 pm)-10.6 °C (4:51 am)
Dewpoint-17 °C-12.8 °C (9:51 pm)-20 °C (1:51 am)
Humidity41.4 %56 % (6:51 am)29 % (2:51 pm)
Barometer1027.1 hPa1030.5 hPa (8:51 am)1024.7 hPa (10:51 pm)
Wind Speed7.6 km/h14.8 km/h (5:51 am)
Weather ElementAverage
Visibility16.1 km
Wind DirectionESE (116.1 °)

Weather ElementTotal
Precipitation---
Heating Degree Days24.5 (Base 18.3)
Averaged from 23 records on 4 March, 2014
WEATHER CONDITIONS BREAKOUT
WIND DIRECTION BREAKOUT
WEATHER BY HOUR - 4 MARCH, 2014
[ °F ]   °C
Local TimeTemperatureDewpointHumidityBarometerVisibilityWind DirectionWind SpeedGust SpeedPrecipitationEventsConditions
1:51 AM-8.9 °C-20 °C41 %1027.4 hPa16.1 kmNorth (350°)13 km/hClear
2:51 AM-10 °C-19.4 °C47 %1027.8 hPa16.1 kmVariable9.3 km/hClear
3:51 AM-10 °C-20 °C45 %1027.4 hPa16.1 kmNNW (340°)13 km/hClear
4:51 AM-10.6 °C-20 °C47 %1028.1 hPa16.1 kmVariable11.1 km/hClear
5:51 AM-10.6 °C-18.9 °C51 %1028.4 hPa16.1 kmNorth (10°)14.8 km/hClear
6:51 AM-10.6 °C-17.8 °C56 %1028.8 hPa16.1 kmNNE (30°)7.4 km/hClear
7:51 AM-10 °C-17.2 °C56 %1029.8 hPa16.1 kmVariable9.3 km/hClear
8:51 AM-8.3 °C-16.7 °C52 %1030.5 hPa16.1 kmVariable7.4 km/hClear
9:51 AM-7.8 °C-17.2 °C48 %1030.5 hPa16.1 kmVariable11.1 km/hClear
10:51 AM-6.1 °C-16.7 °C44 %1029.5 hPa16.1 kmCalmClear
11:51 AM-5 °C-16.1 °C42 %1028.4 hPa16.1 kmNNE (30°)5.6 km/hClear
12:51 PM-4.4 °C-15.6 °C42 %1027.4 hPa16.1 kmCalmClear
1:51 PM-2.2 °C-14.4 °C39 %1026.4 hPa16.1 kmNorthClear
2:51 PM-2.8 °C-18.9 °C29 %1026.1 hPa16.1 kmWNW (300°)9.3 km/hClear
3:51 PM-2.2 °C-17.8 °C30 %1025.7 hPa16.1 kmCalmScattered Clouds
4:51 PM-2.2 °C-17.2 °C31 %1025.1 hPa16.1 kmWNW (290°)5.6 km/hClear
5:51 PM-2.2 °C-16.7 °C33 %1025.1 hPa16.1 kmWest (270°)5.6 km/hClear
6:51 PM-2.2 °C-16.1 °C34 %1025.4 hPa16.1 kmWest (260°)14.8 km/hClear
7:51 PM-2.2 °C-16.1 °C34 %1025.4 hPa16.1 kmWSW (250°)14.8 km/hPartly Cloudy
8:51 PM-1.7 °C-13.3 °C41 %1025.4 hPa16.1 kmCalmMostly Cloudy
9:51 PM-1.7 °C-12.8 °C43 %1025.1 hPa16.1 kmCalmMostly Cloudy
10:51 PM-2.2 °C-15.6 °C36 %1024.7 hPa16.1 kmWSW (250°)9.3 km/hPartly Cloudy
11:51 PM-1.7 °C-16.7 °C32 %1024.7 hPa16.1 kmWNW (290°)5.6 km/hOvercast
Hourly data recorded from KNYC, located 0 kilometers away from New York - Central Park, New York







STORIES FROM OUR PARTNERS